QPF
0.01 0.01 0.01 0.01 0.01 0.01 0.02 0.02 0.03 0.03 0.04 0.04 0.05 0.06 0.07 0.08 0.09 0.11 0.11 0.11 0.11 0.11 0.11 0.11 0.11 0.10 0.10 0.10 0.10 0.10 0.10 0.10 0.09 0.05 0.03 0.02 0.02 0.02 0.01 0.01 0.01 0.02 0.02
0.01 0.01 0.01 0.01 0.02 0.02 0.03 0.04 0.04 0.04 0.04 0.04 0.04 0.05 0.05 0.06 0.07 0.08 0.09 0.09 0.10 0.10 0.08 0.07 0.06 0.06 0.07 0.07 0.07 0.07 0.07 0.06 0.06 0.05 0.03 0.02 0.02 0.02 0.01 0.01 0.01 0.01 0.01
0.01 0.01 0.01 0.02 0.02 0.02 0.02 0.03 0.03 0.03 0.03 0.03 0.04 0.04 0.04 0.04 0.04 0.05 0.06 0.07 0.07 0.07 0.06 0.06 0.05 0.05 0.05 0.05 0.05 0.05 0.06 0.06 0.06 0.06 0.04 0.02 0.02 0.02 0.02 0.02 0.02 0.01 0.01
0.00 0.01 0.01 0.01 0.01 0.01 0.01 0.02 0.02 0.02 0.02 0.02 0.02 0.02 0.03 0.03 0.03 0.03 0.04 0.04 0.05 0.05 0.06 0.06 0.06 0.06 0.05 0.05 0.05 0.05 0.05 0.05 0.05 0.05 0.04 0.03 0.02 0.01 0.02 0.02 0.02 0.02 0.02
0.00 0.01 0.01 0.01 0.01 0.01 0.01 0.01 0.01 0.01 0.01 0.01 0.01 0.01 0.02 0.03 0.03 0.03 0.03 0.03 0.03 0.04 0.04 0.05 0.06 0.07 0.07 0.06 0.05 0.05 0.05 0.05 0.04 0.04 0.03 0.02 0.02 0.02 0.02 0.02 0.02 0.02 0.02
0.01 0.01 0.00 0.00 0.00 0.00 0.00 0.00 0.00 0.01 0.00 0.01 0.01 0.01 0.02 0.02 0.03 0.03 0.03 0.03 0.04 0.04 0.04 0.04 0.05 0.05 0.04 0.04 0.04 0.03 0.03 0.04 0.04 0.04 0.04 0.03 0.02 0.02 0.02 0.02 0.02 0.03 0.03
0.00 0.00 0.00 0.00 0.00 0.00 0.00 0.00 0.00 0.01 0.01 0.01 0.01 0.01 0.02 0.02 0.03 0.03 0.03 0.03 0.03 0.03 0.03 0.03 0.03 0.02 0.03 0.02 0.02 0.03 0.03 0.03 0.03 0.04 0.04 0.03 0.03 0.03 0.03 0.03 0.03 0.03 0.03
0.00 0.00 0.00 0.00 0.00 0.00 0.00 0.00 0.00 0.00 0.01 0.01 0.01 0.01 0.02 0.02 0.02 0.02 0.02 0.02 0.02 0.02 0.03 0.03 0.03 0.03 0.03 0.03 0.02 0.02 0.02 0.03 0.03 0.03 0.03 0.03 0.03 0.03 0.03 0.03 0.03 0.03 0.03
0.00 0.00 0.00 0.00 0.00 0.00 0.00 0.00 0.00 0.00 0.00 0.00 0.01 0.01 0.01 0.01 0.01 0.02 0.02 0.02 0.02 0.02 0.02 0.02 0.02 0.02 0.03 0.03 0.02 0.02 0.02 0.02 0.03 0.03 0.04 0.04 0.04 0.04 0.03 0.03 0.04 0.04 0.03
0.00 0.00 0.00 0.00 0.00 0.00 0.00 0.00 0.00 0.00 0.00 0.00 0.00 0.01 0.01 0.01 0.01 0.01 0.02 0.02 0.02 0.02 0.02 0.02 0.03 0.03 0.03 0.02 0.02 0.02 0.02 0.02 0.02 0.03 0.04 0.04 0.04 0.04 0.04 0.04 0.03 0.04 0.03
0.00 0.00 0.00 0.00 0.00 0.00 0.00 0.00 0.00 0.00 0.00 0.00 0.00 0.01 0.01 0.01 0.01 0.01 0.01 0.02 0.02 0.02 0.01 0.01 0.02 0.03 0.02 0.02 0.02 0.03 0.04 0.04 0.03 0.03 0.04 0.04 0.04 0.04 0.04 0.04 0.04 0.04 0.04
0.00 0.00 0.00 0.00 0.00 0.00 0.00 0.00 0.00 0.00 0.00 0.00 0.01 0.01 0.01 0.01 0.01 0.01 0.02 0.02 0.02 0.02 0.01 0.01 0.01 0.01 0.02 0.02 0.02 0.02 0.03 0.04 0.05 0.05 0.04 0.04 0.04 0.04 0.05 0.05 0.05 0.04 0.04
0.00 0.00 0.00 0.00 0.00 0.00 0.00 0.00 0.00 0.00 0.01 0.01 0.00 0.00 0.01 0.01 0.01 0.01 0.01 0.02 0.02 0.02 0.02 0.01 0.01 0.01 0.01 0.02 0.02 0.02 0.03 0.03 0.04 0.04 0.05 0.04 0.03 0.03 0.03 0.04 0.04 0.03 0.03
0.00 0.00 0.00 0.00 0.00 0.00 0.00 0.00 0.00 0.00 0.01 0.01 0.00 0.00 0.00 0.00 0.00 0.01 0.01 0.01 0.02 0.02 0.02 0.02 0.02 0.01 0.02 0.02 0.03 0.03 0.03 0.02 0.03 0.03 0.04 0.04 0.04 0.03 0.03 0.03 0.03 0.02 0.02
0.00 0.00 0.00 0.00 0.00 0.00 0.00 0.00 0.00 0.00 0.01 0.01 0.01 0.01 0.01 0.01 0.01 0.01 0.01 0.02 0.02 0.02 0.02 0.02 0.02 0.01 0.02 0.02 0.02 0.03 0.03 0.03 0.02 0.02 0.03 0.03 0.03 0.03 0.03 0.02 0.02 0.02 0.02
0.00 0.00 0.00 0.00 0.00 0.00 0.01 0.01 0.01 0.01 0.01 0.01 0.01 0.01 0.02 0.02 0.02 0.02 0.02 0.02 0.02 0.02 0.02 0.02 0.02 0.02 0.02 0.02 0.02 0.03 0.03 0.03 0.03 0.03 0.02 0.02 0.02 0.02 0.02 0.02 0.02 0.02 0.02
0.00 0.00 0.00 0.00 0.00 0.00 0.01 0.01 0.01 0.01 0.01 0.01 0.01 0.02 0.02 0.02 0.03 0.03 0.02 0.02 0.02 0.02 0.02 0.02 0.02 0.02 0.02 0.02 0.02 0.02 0.02 0.02 0.02 0.03 0.03 0.02 0.02 0.02 0.02 0.02 0.02 0.02 0.02
0.01 0.00 0.00 0.00 0.00 0.00 0.01 0.01 0.01 0.01 0.01 0.01 0.02 0.02 0.02 0.02 0.03 0.03 0.02 0.02 0.02 0.01 0.01 0.02 0.02 0.02 0.02 0.02 0.02 0.02 0.02 0.02 0.02 0.02 0.02 0.02 0.02 0.02 0.02 0.02 0.02 0.01 0.01
0.01 0.01 0.01 0.01 0.01 0.01 0.01 0.01 0.01 0.02 0.02 0.02 0.02 0.02 0.02 0.02 0.03 0.02 0.02 0.02 0.02 0.01 0.01 0.02 0.02 0.02 0.02 0.03 0.02 0.02 0.02 0.02 0.02 0.02 0.02 0.02 0.01 0.01 0.01 0.01 0.01 0.01 0.01
0.01 0.01 0.01 0.01 0.01 0.01 0.01 0.02 0.02 0.02 0.02 0.02 0.02 0.02 0.02 0.03 0.03 0.02 0.02 0.02 0.02 0.02 0.02 0.02 0.02 0.02 0.02 0.02 0.03 0.02 0.02 0.02 0.02 0.02 0.02 0.02 0.02 0.02 0.01 0.01 0.01 0.01 0.01
0.01 0.01 0.01 0.01 0.01 0.01 0.01 0.02 0.02 0.02 0.02 0.02 0.02 0.02 0.03 0.03 0.02 0.02 0.02 0.02 0.02 0.02 0.02 0.02 0.02 0.02 0.02 0.02 0.02 0.02 0.02 0.02 0.02 0.02 0.02 0.01 0.01 0.01 0.01 0.01 0.01 0.01 0.01
0.01 0.01 0.01 0.01 0.01 0.01 0.01 0.02 0.02 0.02 0.02 0.02 0.02 0.03 0.03 0.03 0.03 0.02 0.02 0.02 0.02 0.02 0.02 0.02 0.02 0.02 0.01 0.01 0.01 0.02 0.01 0.01 0.01 0.01 0.01 0.01 0.01 0.01 0.01 0.01 0.01 0.01 0.01
0.01 0.01 0.01 0.01 0.01 0.01 0.01 0.02 0.02 0.02 0.02 0.02 0.02 0.03 0.03 0.03 0.03 0.03 0.02 0.02 0.02 0.02 0.02 0.02 0.02 0.02 0.01 0.01 0.01 0.01 0.01 0.01 0.01 0.01 0.01 0.01 0.01 0.01 0.01 0.01 0.01 0.01 0.01
0.01 0.01 0.01 0.01 0.01 0.01 0.01 0.01 0.02 0.02 0.02 0.02 0.02 0.02 0.02 0.02 0.03 0.03 0.03 0.03 0.02 0.02 0.02 0.01 0.01 0.01 0.01 0.01 0.01 0.01 0.01 0.01 0.01 0.01 0.01 0.01 0.01 0.01 0.01 0.01 0.01 0.01 0.01
0.01 0.01 0.01 0.01 0.01 0.01 0.01 0.01 0.02 0.02 0.02 0.02 0.02 0.02 0.02 0.02 0.03 0.03 0.03 0.03 0.02 0.02 0.02 0.01 0.01 0.01 0.01 0.01 0.01 0.01 0.01 0.01 0.01 0.01 0.01 0.02 0.01 0.01 0.01 0.01 0.01 0.01 0.01
0.01 0.01 0.01 0.01 0.01 0.01 0.02 0.02 0.02 0.02 0.02 0.02 0.02 0.02 0.02 0.02 0.03 0.03 0.03 0.03 0.03 0.02 0.02 0.02 0.02 0.01 0.01 0.01 0.01 0.01 0.01 0.01 0.01 0.01 0.02 0.02 0.02 0.01 0.01 0.01 0.01 0.01 0.01
MSLP
1021.54 1021.20 1020.86 1020.52 1020.17 1019.82 1019.48 1019.13 1018.79 1018.45 1018.13 1017.80 1017.45 1017.08 1016.66 1016.18 1015.64 1015.03 1014.37 1013.68 1012.98 1012.31 1011.69 1011.15 1010.70 1010.34 1010.08 1009.89 1009.76 1009.66 1009.58 1009.50 1009.40 1009.28 1009.15 1008.99 1008.83 1008.67 1008.53 1008.42 1008.34 1008.31 1008.31
1021.68 1021.25 1020.84 1020.43 1020.02 1019.62 1019.21 1018.82 1018.45 1018.09 1017.75 1017.43 1017.11 1016.77 1016.41 1016.00 1015.54 1015.02 1014.44 1013.81 1013.17 1012.52 1011.89 1011.31 1010.78 1010.33 1009.94 1009.62 1009.36 1009.14 1008.95 1008.79 1008.63 1008.48 1008.33 1008.18 1008.03 1007.89 1007.77 1007.68 1007.60 1007.56 1007.55
1021.73 1021.25 1020.77 1020.31 1019.84 1019.37 1018.92 1018.47 1018.05 1017.65 1017.28 1016.95 1016.63 1016.32 1016.01 1015.66 1015.28 1014.84 1014.36 1013.82 1013.24 1012.65 1012.04 1011.45 1010.88 1010.35 1009.86 1009.42 1009.04 1008.70 1008.41 1008.16 1007.94 1007.75 1007.59 1007.45 1007.33 1007.22 1007.12 1007.04 1006.98 1006.93 1006.91
1021.70 1021.18 1020.67 1020.16 1019.64 1019.13 1018.61 1018.11 1017.64 1017.19 1016.79 1016.43 1016.11 1015.81 1015.52 1015.22 1014.89 1014.53 1014.13 1013.67 1013.17 1012.63 1012.07 1011.49 1010.90 1010.32 1009.77 1009.24 1008.76 1008.33 1007.94 1007.62 1007.36 1007.15 1006.98 1006.86 1006.77 1006.69 1006.63 1006.57 1006.52 1006.47 1006.44
1021.58 1021.06 1020.53 1019.99 1019.44 1018.89 1018.33 1017.78 1017.26 1016.78 1016.35 1015.96 1015.62 1015.31 1015.02 1014.73 1014.44 1014.12 1013.77 1013.37 1012.93 1012.45 1011.92 1011.37 1010.79 1010.19 1009.60 1009.03 1008.48 1007.99 1007.55 1007.19 1006.90 1006.68 1006.53 1006.43 1006.37 1006.33 1006.30 1006.26 1006.22 1006.18 1006.13
1021.40 1020.89 1020.37 1019.81 1019.24 1018.65 1018.06 1017.48 1016.93 1016.43 1015.97 1015.56 1015.19 1014.86 1014.56 1014.26 1013.96 1013.65 1013.31 1012.94 1012.53 1012.08 1011.59 1011.06 1010.49 1009.91 1009.31 1008.73 1008.16 1007.65 1007.19 1006.82 1006.53 1006.33 1006.21 1006.15 1006.13 1006.13 1006.13 1006.11 1006.09 1006.04 1005.99
1021.18 1020.69 1020.16 1019.60 1019.01 1018.40 1017.79 1017.20 1016.64 1016.12 1015.65 1015.22 1014.84 1014.48 1014.14 1013.81 1013.48 1013.13 1012.77 1012.38 1011.97 1011.53 1011.05 1010.54 1010.00 1009.44 1008.87 1008.30 1007.76 1007.26 1006.83 1006.48 1006.23 1006.07 1005.99 1005.97 1006.00 1006.04 1006.07 1006.08 1006.06 1006.02 1005.96
1020.93 1020.45 1019.92 1019.34 1018.73 1018.10 1017.47 1016.87 1016.31 1015.80 1015.33 1014.90 1014.50 1014.12 1013.75 1013.37 1012.97 1012.57 1012.15 1011.72 1011.27 1010.81 1010.33 1009.84 1009.33 1008.80 1008.26 1007.74 1007.25 1006.80 1006.43 1006.14 1005.94 1005.84 1005.81 1005.85 1005.93 1006.01 1006.08 1006.11 1006.11 1006.07 1006.02
1020.65 1020.16 1019.61 1019.00 1018.35 1017.70 1017.06 1016.46 1015.90 1015.40 1014.94 1014.52 1014.12 1013.71 1013.30 1012.86 1012.41 1011.93 1011.45 1010.95 1010.46 1009.97 1009.47 1008.99 1008.50 1008.01 1007.53 1007.06 1006.64 1006.27 1005.97 1005.75 1005.63 1005.60 1005.65 1005.75 1005.88 1006.01 1006.11 1006.17 1006.19 1006.17 1006.12
1020.33 1019.81 1019.20 1018.54 1017.85 1017.17 1016.51 1015.90 1015.35 1014.86 1014.42 1014.01 1013.60 1013.18 1012.73 1012.24 1011.73 1011.19 1010.63 1010.08 1009.54 1009.02 1008.52 1008.04 1007.58 1007.14 1006.72 1006.33 1005.98 1005.69 1005.48 1005.35 1005.31 1005.36 1005.48 1005.65 1005.84 1006.02 1006.16 1006.25 1006.30 1006.29 1006.26
1019.96 1019.37 1018.70 1017.98 1017.24 1016.50 1015.82 1015.20 1014.65 1014.16 1013.72 1013.31 1012.90 1012.46 1011.98 1011.46 1010.89 1010.31 1009.71 1009.12 1008.55 1008.02 1007.53 1007.07 1006.65 1006.26 1005.91 1005.60 1005.33 1005.13 1005.01 1004.97 1005.02 1005.15 1005.34 1005.58 1005.83 1006.06 1006.25 1006.38 1006.45 1006.47 1006.47
1019.53 1018.87 1018.12 1017.33 1016.52 1015.74 1015.02 1014.37 1013.80 1013.30 1012.85 1012.43 1012.00 1011.54 1011.04 1010.49 1009.90 1009.29 1008.68 1008.08 1007.52 1007.01 1006.55 1006.14 1005.77 1005.45 1005.18 1004.95 1004.77 1004.66 1004.63 1004.67 1004.81 1005.01 1005.28 1005.58 1005.89 1006.17 1006.41 1006.58 1006.69 1006.75 1006.77
1019.05 1018.31 1017.50 1016.64 1015.77 1014.94 1014.17 1013.49 1012.88 1012.35 1011.86 1011.41 1010.94 1010.45 1009.93 1009.36 1008.77 1008.16 1007.57 1007.00 1006.49 1006.03 1005.64 1005.30 1005.02 1004.78 1004.59 1004.45 1004.37 1004.34 1004.39 1004.52 1004.73 1005.01 1005.35 1005.72 1006.09 1006.42 1006.71 1006.92 1007.07 1007.15 1007.20
1018.54 1017.74 1016.87 1015.97 1015.05 1014.18 1013.36 1012.63 1011.97 1011.38 1010.84 1010.32 1009.81 1009.28 1008.72 1008.15 1007.56 1006.99 1006.44 1005.94 1005.51 1005.14 1004.84 1004.60 1004.42 1004.29 1004.20 1004.15 1004.16 1004.22 1004.35 1004.56 1004.84 1005.19 1005.60 1006.02 1006.45 1006.84 1007.17 1007.43 1007.61 1007.73 1007.80
1018.03 1017.20 1016.30 1015.36 1014.42 1013.51 1012.65 1011.86 1011.13 1010.47 1009.85 1009.26 1008.68 1008.09 1007.51 1006.93 1006.37 1005.84 1005.37 1004.96 1004.63 1004.37 1004.20 1004.08 1004.01 1003.99 1004.01 1004.06 1004.15 1004.30 1004.51 1004.80 1005.15 1005.56 1006.02 1006.51 1006.98 1007.42 1007.79 1008.09 1008.31 1008.46 1008.56
1017.52 1016.68 1015.78 1014.84 1013.89 1012.96 1012.06 1011.21 1010.42 1009.67 1008.96 1008.28 1007.63 1006.99 1006.38 1005.80 1005.27 1004.81 1004.42 1004.12 1003.91 1003.78 1003.73 1003.74 1003.80 1003.89 1004.01 1004.16 1004.34 1004.57 1004.86 1005.21 1005.62 1006.09 1006.61 1007.14 1007.65 1008.13 1008.55 1008.89 1009.14 1009.32 1009.44
1016.99 1016.17 1015.29 1014.37 1013.42 1012.48 1011.56 1010.66 1009.80 1008.97 1008.18 1007.42 1006.70 1006.02 1005.40 1004.83 1004.35 1003.95 1003.66 1003.47 1003.38 1003.39 1003.46 1003.59 1003.76 1003.96 1004.18 1004.41 1004.68 1004.98 1005.33 1005.74 1006.21 1006.72 1007.28 1007.85 1008.41 1008.92 1009.37 1009.74 1010.03 1010.23 1010.37
1016.41 1015.61 1014.77 1013.87 1012.94 1012.00 1011.06 1010.12 1009.21 1008.32 1007.47 1006.65 1005.90 1005.20 1004.59 1004.06 1003.64 1003.33 1003.14 1003.07 1003.10 1003.21 1003.40 1003.64 1003.90 1004.19 1004.48 1004.79 1005.12 1005.48 1005.88 1006.33 1006.84 1007.39 1007.98 1008.58 1009.16 1009.70 1010.18 1010.58 1010.89 1011.13 1011.30
1015.72 1014.96 1014.14 1013.27 1012.35 1011.41 1010.46 1009.50 1008.56 1007.64 1006.77 1005.94 1005.19 1004.53 1003.96 1003.51 1003.18 1002.97 1002.89 1002.93 1003.07 1003.29 1003.56 1003.88 1004.21 1004.56 1004.91 1005.26 1005.63 1006.03 1006.47 1006.95 1007.48 1008.05 1008.66 1009.27 1009.86 1010.42 1010.91 1011.34 1011.68 1011.95 1012.15
1014.90 1014.15 1013.35 1012.49 1011.58 1010.65 1009.69 1008.73 1007.79 1006.88 1006.03 1005.25 1004.56 1003.98 1003.52 1003.18 1002.97 1002.89 1002.93 1003.08 1003.32 1003.61 1003.96 1004.32 1004.70 1005.07 1005.45 1005.83 1006.22 1006.63 1007.08 1007.57 1008.11 1008.68 1009.28 1009.89 1010.48 1011.04 1011.54 1011.98 1012.35 1012.66 1012.90
1013.97 1013.21 1012.40 1011.53 1010.62 1009.69 1008.73 1007.79 1006.89 1006.04 1005.26 1004.58 1004.01 1003.57 1003.26 1003.08 1003.03 1003.10 1003.27 1003.53 1003.84 1004.21 1004.59 1004.98 1005.37 1005.74 1006.11 1006.49 1006.87 1007.28 1007.72 1008.20 1008.73 1009.28 1009.86 1010.45 1011.02 1011.57 1012.08 1012.53 1012.92 1013.25 1013.53
1013.00 1012.21 1011.36 1010.47 1009.55 1008.61 1007.67 1006.77 1005.93 1005.17 1004.52 1003.98 1003.59 1003.34 1003.22 1003.23 1003.36 1003.59 1003.89 1004.25 1004.64 1005.05 1005.45 1005.84 1006.21 1006.57 1006.91 1007.26 1007.62 1008.00 1008.42 1008.87 1009.36 1009.89 1010.43 1010.98 1011.53 1012.05 1012.54 1012.99 1013.39 1013.75 1014.06
1012.10 1011.26 1010.38 1009.45 1008.51 1007.57 1006.66 1005.81 1005.06 1004.42 1003.92 1003.57 1003.38 1003.35 1003.44 1003.66 1003.97 1004.36 1004.79 1005.23 1005.68 1006.11 1006.50 1006.87 1007.21 1007.52 1007.83 1008.13 1008.45 1008.80 1009.18 1009.59 1010.05 1010.53 1011.02 1011.53 1012.04 1012.53 1012.99 1013.43 1013.83 1014.20 1014.54
1011.42 1010.54 1009.62 1008.67 1007.71 1006.78 1005.91 1005.13 1004.48 1003.98 1003.64 1003.49 1003.50 1003.67 1003.98 1004.39 1004.87 1005.38 1005.91 1006.42 1006.89 1007.32 1007.69 1008.02 1008.31 1008.57 1008.83 1009.08 1009.36 1009.66 1010.00 1010.38 1010.78 1011.22 1011.67 1012.13 1012.58 1013.03 1013.46 1013.87 1014.27 1014.64 1015.00
1011.09 1010.18 1009.24 1008.28 1007.33 1006.42 1005.61 1004.90 1004.36 1003.99 1003.81 1003.83 1004.03 1004.38 1004.85 1005.41 1006.01 1006.62 1007.21 1007.74 1008.21 1008.61 1008.94 1009.21 1009.44 1009.64 1009.84 1010.05 1010.29 1010.55 1010.86 1011.19 1011.56 1011.95 1012.35 1012.76 1013.17 1013.57 1013.96 1014.34 1014.72 1015.09 1015.45
1011.16 1010.27 1009.34 1008.40 1007.49 1006.63 1005.88 1005.26 1004.82 1004.57 1004.52 1004.67 1005.00 1005.48 1006.06 1006.70 1007.36 1008.00 1008.59 1009.11 1009.53 1009.87 1010.14 1010.34 1010.51 1010.66 1010.81 1010.98 1011.18 1011.41 1011.69 1012.00 1012.33 1012.68 1013.04 1013.41 1013.77 1014.12 1014.48 1014.83 1015.18 1015.53 1015.89
Thickness
5504 5506 5508 5509 5511 5513 5513 5514 5515 5517 5518 5520 5522 5524 5525 5526 5527 5528 5529 5530 5532 5532 5533 5533 5533 5532 5533 5532 5531 5530 5529 5527 5526 5529 5525 5522 5519 5517 5514 5511 5509 5507 5504
5485 5487 5489 5491 5493 5494 5495 5496 5497 5499 5501 5502 5504 5506 5506 5507 5509 5509 5510 5510 5512 5512 5513 5514 5514 5515 5515 5515 5514 5513 5513 5511 5509 5510 5509 5505 5503 5501 5498 5496 5493 5492 5489
5467 5469 5471 5472 5473 5475 5477 5478 5480 5481 5483 5484 5486 5487 5488 5489 5490 5490 5491 5492 5492 5493 5494 5494 5495 5495 5496 5497 5496 5496 5495 5494 5492 5491 5491 5488 5486 5485 5483 5481 5478 5476 5474
5450 5451 5453 5453 5454 5456 5457 5459 5461 5462 5464 5465 5466 5467 5468 5470 5471 5472 5473 5474 5474 5475 5475 5475 5476 5475 5476 5477 5478 5477 5476 5475 5474 5473 5473 5471 5469 5467 5465 5463 5463 5461 5459
5432 5433 5433 5434 5436 5437 5438 5440 5442 5443 5444 5446 5447 5448 5450 5451 5452 5452 5453 5455 5456 5456 5456 5456 5456 5456 5456 5456 5457 5457 5457 5456 5456 5456 5455 5454 5453 5451 5449 5447 5445 5444 5443
5415 5415 5416 5416 5418 5419 5419 5421 5423 5424 5425 5427 5428 5429 5430 5431 5432 5433 5433 5435 5435 5435 5436 5436 5437 5437 5437 5437 5437 5437 5437 5437 5438 5438 5438 5438 5438 5435 5432 5429 5426 5424 5425
5398 5398 5398 5399 5400 5400 5401 5403 5404 5405 5407 5409 5410 5411 5411 5412 5412 5413 5413 5414 5415 5415 5416 5416 5417 5418 5417 5417 5418 5419 5418 5418 5417 5417 5419 5420 5418 5417 5415 5412 5409 5407 5406
5382 5382 5381 5381 5382 5382 5383 5383 5384 5385 5388 5389 5391 5392 5393 5394 5393 5394 5394 5394 5395 5395 5395 5396 5397 5397 5396 5396 5398 5398 5398 5399 5399 5399 5399 5400 5398 5396 5395 5394 5391 5388 5387
5365 5365 5364 5364 5364 5365 5365 5365 5366 5367 5369 5370 5371 5373 5374 5375 5375 5375 5374 5375 5375 5376 5376 5376 5376 5376 5377 5377 5377 5378 5379 5380 5380 5379 5378 5378 5377 5376 5375 5373 5371 5369 5369
5348 5348 5347 5347 5346 5347 5347 5347 5348 5348 5350 5352 5353 5354 5354 5356 5357 5357 5356 5355 5356 5357 5357 5357 5356 5356 5356 5357 5356 5357 5358 5359 5359 5360 5358 5358 5357 5356 5355 5353 5352 5350 5348
5331 5331 5330 5329 5329 5329 5329 5330 5330 5331 5332 5333 5334 5336 5336 5336 5338 5338 5337 5336 5335 5336 5337 5337 5337 5337 5337 5338 5337 5337 5338 5338 5338 5339 5339 5338 5337 5336 5335 5334 5333 5332 5331
5314 5314 5313 5312 5312 5312 5311 5312 5312 5312 5313 5315 5316 5317 5318 5318 5318 5318 5318 5317 5316 5316 5318 5318 5318 5318 5319 5319 5319 5319 5320 5319 5320 5320 5320 5319 5318 5317 5316 5315 5314 5313 5313
5297 5296 5296 5295 5295 5295 5294 5294 5294 5294 5295 5297 5298 5299 5300 5300 5299 5299 5299 5298 5298 5298 5299 5300 5300 5300 5300 5300 5300 5301 5301 5301 5301 5302 5301 5301 5299 5298 5298 5297 5297 5296 5296
5281 5281 5280 5280 5280 5280 5279 5278 5278 5278 5278 5279 5280 5281 5281 5282 5281 5281 5281 5280 5280 5281 5281 5282 5282 5282 5282 5282 5282 5282 5282 5283 5283 5283 5282 5281 5280 5280 5280 5279 5279 5279 5279
5266 5266 5266 5265 5264 5264 5263 5262 5261 5262 5261 5261 5262 5263 5263 5265 5266 5265 5264 5264 5264 5265 5265 5264 5264 5265 5265 5264 5265 5265 5265 5265 5265 5265 5264 5264 5263 5262 5262 5261 5261 5260 5260
5253 5253 5251 5250 5249 5248 5247 5247 5247 5246 5246 5246 5247 5247 5248 5250 5251 5251 5250 5250 5250 5250 5248 5248 5248 5248 5248 5248 5248 5248 5248 5248 5247 5246 5246 5245 5245 5244 5244 5244 5243 5242 5242
5238 5237 5236 5235 5233 5232 5231 5230 5231 5232 5231 5231 5232 5232 5233 5235 5235 5236 5236 5235 5235 5234 5231 5231 5231 5232 5232 5232 5231 5231 5231 5230 5230 5229 5229 5228 5228 5227 5226 5226 5226 5226 5225
5225 5223 5222 5220 5219 5217 5216 5215 5214 5215 5215 5216 5217 5217 5218 5220 5220 5220 5219 5218 5217 5216 5214 5214 5214 5214 5215 5215 5215 5214 5214 5213 5213 5212 5212 5211 5210 5210 5209 5209 5209 5208 5208
5213 5211 5209 5207 5205 5204 5203 5201 5201 5200 5200 5201 5202 5203 5203 5204 5204 5203 5202 5200 5200 5199 5199 5198 5198 5198 5198 5198 5198 5198 5198 5197 5197 5196 5195 5194 5193 5193 5193 5193 5192 5193 5192
5201 5200 5197 5194 5193 5192 5190 5189 5187 5187 5187 5187 5187 5188 5188 5188 5188 5187 5185 5184 5184 5184 5184 5183 5183 5183 5182 5182 5182 5182 5182 5182 5181 5180 5180 5179 5178 5178 5177 5177 5177 5177 5177
5190 5189 5186 5184 5182 5180 5178 5177 5175 5174 5174 5174 5174 5174 5176 5174 5174 5173 5172 5171 5170 5170 5170 5169 5169 5169 5168 5167 5167 5167 5166 5166 5165 5165 5164 5164 5163 5163 5163 5163 5162 5162 5162
5179 5177 5175 5173 5171 5169 5167 5166 5164 5162 5162 5162 5163 5162 5163 5161 5160 5160 5159 5158 5158 5157 5157 5157 5156 5155 5155 5154 5153 5153 5152 5151 5151 5150 5150 5149 5148 5148 5149 5149 5149 5148 5148
5168 5166 5165 5163 5161 5159 5157 5155 5153 5152 5152 5151 5151 5151 5149 5148 5148 5147 5146 5146 5146 5146 5145 5144 5144 5143 5143 5142 5141 5141 5140 5140 5139 5138 5137 5136 5135 5135 5135 5135 5135 5134 5134
5158 5156 5154 5153 5150 5148 5146 5144 5143 5142 5141 5140 5139 5139 5138 5137 5136 5136 5135 5135 5135 5134 5134 5133 5133 5133 5132 5131 5130 5130 5129 5129 5129 5128 5127 5126 5124 5123 5123 5122 5122 5121 5121
5148 5146 5144 5142 5140 5137 5135 5134 5133 5131 5130 5129 5129 5128 5127 5126 5126 5125 5125 5124 5124 5124 5124 5123 5122 5122 5122 5121 5120 5120 5120 5119 5119 5118 5116 5115 5114 5113 5112 5111 5111 5110 5110
5138 5136 5133 5131 5129 5127 5125 5124 5122 5121 5120 5119 5118 5118 5117 5116 5116 5115 5115 5115 5114 5114 5114 5114 5113 5113 5112 5112 5112 5111 5111 5111 5110 5109 5108 5107 5105 5104 5103 5102 5101 5100 5100